Location: Cutin
(45.8000°N, 22.7667°E)
Time: 02:44:18
(UTC+00:00)

Daily predictions for brighter satellites

Satellite Brightness Start Highest point End
(mag) Time Altitude Azimuth Time Altitude Azimuth Time Altitude Azimuth
Cosmos 540 Rocket 3.3 00:01:47 10° NNW 00:06:58 80° WSW 00:09:10 35° S
Cosmos 1244 Rocket 4.5 00:04:51 37° SSW 00:07:22 72° W 00:13:33 10° N
Resurs 1-4 Rocket 2.8 00:02:44 10° NNE 00:07:49 47° E 00:10:24 26° SSE
CZ-2C R/B 3.2 00:04:15 15° SE 00:08:19 52° ENE 00:13:21 10° N
Cosmos 1953 2.5 00:05:04 10° N 00:08:59 63° E 00:10:13 39° SE
Cosmos 1703 Rocket 4.0 00:09:56 35° SSE 00:11:31 56° E 00:15:53 10° NNE
Cosmos 1697 Rocket 3.8 00:08:06 10° NW 00:12:40 26° WSW 00:12:58 26° WSW
COSMOS 2406 3.2 00:12:11 38° SSW 00:14:34 89° WNW 00:20:23 10° NNE
OPS 6432 4.4 00:13:18 10° NW 00:16:23 67° NE 00:17:24 38° ESE
DELTA 2 R/B (1) 4.0 00:15:52 37° SSW 00:16:45 40° S 00:21:54 10° ESE
Cosmos 1862 Rocket 4.1 00:16:00 37° WSW 00:16:50 41° WNW 00:20:56 10° N
Cosmos 1980 Rocket 2.4 00:13:09 10° NW 00:18:38 49° WSW 00:20:33 35° SSW
MSX 4.0 00:16:08 10° NNE 00:21:53 69° ESE 00:25:00 28° S
Cosmos 2369 3.8 00:16:49 10° NNW 00:22:26 59° WSW 00:25:13 29° S
SL-16 R/B 3.6 00:16:45 10° SE 00:22:37 44° ENE 00:28:31 10° N
NPP 3.7 00:17:59 10° NNE 00:23:25 80° ESE 00:26:04 31° S
Meteor 1-16 Rocket 4.3 00:22:38 10° NNW 00:28:09 59° W 00:30:51 31° SSW
BREEZE-M DEB (TANK) 4.1 00:28:58 10° NW 00:30:35 17° N 00:32:03 10° NE
Cosmos 1300 Rocket 4.3 00:29:56 10° N 00:34:10 49° ENE 00:37:46 13° SSE
Cosmos 1315 Rocket 2.6 00:36:05 42° SSW 00:37:20 87° WNW 00:41:15 10° N
Cosmos 1455 1.8 00:33:57 10° NNW 00:37:24 70° W 00:38:09 50° SSW
Cosmos 1709 Rocket 4.2 00:34:28 20° S 00:38:56 70° E 00:45:17 10° NNE
Meteor 1-4 Rocket 2.0 00:41:20 58° WSW 00:41:33 60° WNW 00:44:30 10° N
H-2A R/B 3.5 00:39:02 10° N 00:42:59 58° WNW 00:44:21 36° SW
Lacrosse 5 rocket 2.6 00:39:26 10° NW 00:43:22 42° NNE 00:47:05 10° ESE
SL-16 R/B 2.5 00:39:17 10° NNW 00:44:58 70° ENE 00:50:37 10° SE
Cosmos 968 Rocket 4.3 00:44:02 17° SSE 00:47:31 42° ESE 00:52:20 10° NE
COSMOS 2441 4.3 00:46:34 10° NNE 00:51:24 84° ESE 00:54:17 24° S
Cosmos 841 Rocket 3.4 00:47:46 10° NNW 00:52:59 72° WSW 00:57:49 12° S
Cosmos 2082 Rocket 3.0 00:50:37 21° WSW 00:53:59 40° NW 00:59:22 10° NNE
Cosmos 2237 4.2 00:52:22 10° NNW 00:58:09 84° WSW 01:03:52 10° SSE
ADEOS II 2.1 00:57:28 10° NNE 01:02:44 89° ESE 01:06:30 20° SSW
Cosmos 2219 Rocket 4.3 00:59:21 10° N 01:04:17 29° NE 01:09:11 10° ESE
Okean 1-7 4.3 01:03:32 21° WSW 01:05:10 27° WNW 01:08:50 10° NNW
SJ 16-02 2.2 01:05:16 14° S 01:08:39 43° ESE 01:12:46 10° NNE
Cosmos 1782 Rocket 3.6 01:04:33 10° NNW 01:08:52 57° W 01:11:44 20° SSW
Cosmos 1408 2.1 01:07:42 27° S 01:09:11 75° E 01:12:10 10° NNE
Cosmos 2360 Rocket 2.9 01:05:44 10° NNW 01:11:20 57° ENE 01:16:55 10° SE
IDEFIX/ARIANE 42P 3.3 01:07:58 10° N 01:12:50 39° WNW 01:16:06 19° SW
Cosmos 1814 Rocket 4.4 01:09:57 10° NNW 01:15:08 66° ENE 01:20:21 10° SSE
CZ-2C R/B 3.5 01:14:26 10° N 01:20:11 62° WNW 01:24:41 17° SSW
CRYOSAT 2 4.5 01:15:45 10° N 01:20:35 60° W 01:24:18 17° SSW
ALOS 2.3 01:17:52 10° NNE 01:22:31 80° ESE 01:26:39 13° S
Meteor 2-5 Rocket 4.1 01:16:47 10° S 01:22:36 68° E 01:28:31 10° NNE
SL-8 R/B 3.7 01:18:02 10° WNW 01:22:44 59° SSW 01:27:27 10° SE
CZ-2D R/B 2.8 01:18:09 10° N 01:23:19 44° WNW 01:27:13 17° SW
Cosmos 2278 4.0 01:19:40 10° NW 01:25:06 45° WSW 01:30:29 10° S
SL-27 R/B 2.9 01:23:45 16° S 01:25:45 42° ESE 01:28:27 10° NNE
Cosmos 2242 Rocket 3.7 01:26:23 17° SSW 01:29:38 58° WNW 01:34:03 10° N
Cosmos 1703 3.1 01:29:25 14° S 01:32:33 84° W 01:36:19 10° N
Cosmos 2333 Rocket 2.5 01:27:30 10° NNW 01:33:14 75° ENE 01:38:57 10° SSE
Cosmos 1242 Rocket 2.9 01:33:00 21° WSW 01:34:19 31° WNW 01:36:59 10° N
Cosmos 839 Rocket 4.5 01:27:41 10° NNW 01:35:04 74° NE 01:41:19 10° SE
Sich 1 Rocket 4.4 01:31:12 10° N 01:35:40 53° ENE 01:40:03 10° SSE
FENGYUN 3A 4.0 01:31:43 10° N 01:36:56 52° WNW 01:41:29 13° SW
Cosmos 2074 Rocket 4.3 01:32:56 10° S 01:39:06 70° E 01:45:18 10° NNE
AQUA 4.2 01:35:53 10° N 01:40:27 49° WNW 01:44:24 13° SW
Cosmos 2151 Rocket 4.0 01:38:08 10° N 01:42:38 68° E 01:47:03 10° SSE
Meteor 1-28 Rocket 4.0 01:40:41 15° SSW 01:43:08 30° W 01:46:20 10° NNW
Cosmos 1953 4.4 01:43:23 10° WNW 01:44:14 11° W 01:45:03 10° W
YAOGAN 6 4.2 01:43:11 10° NNE 01:46:09 29° E 01:49:05 10° SSE
UNK 3.8 01:41:55 10° S 01:46:30 61° WSW 01:51:07 10° NNW
Cosmos 2322 Rocket 2.2 01:41:10 10° NNW 01:46:45 63° WSW 01:52:19 10° S
Resurs 1-4 Rocket 3.4 01:43:02 10° N 01:47:20 26° WNW 01:51:28 11° WSW
CZ-2C R/B 3.8 01:45:43 13° SW 01:48:53 22° W 01:52:51 10° NW
Envisat 3.2 01:47:03 10° NNE 01:52:09 73° ESE 01:57:12 10° S
EXPRESS MD2 3.3 01:49:52 13° WSW 01:52:36 87° NNW 01:58:01 10° ENE
Cosmos 2184 Rocket 4.1 01:47:35 10° S 01:53:48 86° E 02:00:06 10° N
Okean 2 Rocket 3.1 01:51:55 10° N 01:56:20 87° E 02:00:43 10° S
Cosmos 1833 4.3 01:53:35 10° SSW 01:59:17 89° ESE 02:04:58 10° NNE
Thor Agena Rocket 4.4 01:56:36 10° NNE 02:01:41 51° E 02:06:45 10° S
DELTA 2 R/B (1) 4.0 01:57:24 10° WSW 02:02:38 42° S 02:07:50 10° ESE
Cosmos 2154 Rocket 4.1 01:58:06 10° S 02:04:18 85° E 02:10:32 10° N
SL-16 R/B 3.2 02:00:38 10° SSW 02:06:16 35° W 02:11:58 10° NNW
Nadezhda 3 Rocket 4.2 02:00:15 10° N 02:06:40 84° E 02:13:00 10° S
ATLAS 2AS CENTAUR R/B 3.1 02:00:20 10° NW 02:07:12 69° NE 02:13:47 10° SE
Cosmos 1025 Rocket 4.3 02:05:11 10° SSE 02:09:19 43° E 02:13:29 10° NNE
Cosmos 1674 Rocket 3.6 02:06:50 10° SSW 02:11:15 72° W 02:15:42 10° N
SL-4 R/B 3.8 02:08:32 10° SSW 02:12:09 26° SE 02:15:51 10° E
Cosmos 2098 Rocket 4.3 02:11:17 10° NNW 02:15:47 36° W 02:21:03 10° SSW
Genesis I 3.4 02:16:34 10° SW 02:20:00 50° NW 02:23:29 10° NNE
H-2A R/B 3.7 02:15:16 10° NNE 02:20:15 36° E 02:25:14 10° SSE
SL-24 DEB 4.4 02:16:34 10° N 02:21:08 76° E 02:25:38 10° S
